Regional Weather Roundup
Issued by NWS Sioux Falls, SD

Home | Current Version | Previous Version | Graphics & Text | Print | Product List | Glossary Off
Versions: 1 2 3 4 5 6 7 8 9 10 11 12 13 14 15 16 17 18 19 20 21 22 23 24 25 26 27 28 29 30 31 32 33 34 35 36 37 38 39 40 41 42 43 44 45 46 47 48 49 50

000
ASUS43 KFSD 251010
RWRFSD

WEATHER ROUNDUP FOR SE SOUTH DAKOTA/SW MINNESOTA/NW IOWA
NATIONAL WEATHER SERVICE SIOUX FALLS SD
500 AM CDT SAT OCT 25 2014

NOTE: "FAIR" INDICATES FEW OR NO CLOUDS BELOW 12,000 FEET WITH NO
SIGNIFICANT WEATHER AND OR OBSTRUCTIONS TO VISIBILITY.


SDZ038>040-050-052>070-251100-
SOUTHEAST SOUTH DAKOTA

CITY           SKY/WX    TMP DP  RH WIND       PRES   REMARKS
CHAMBERLAIN    CLEAR     43  34  71 W3        30.11R
HURON          MOCLDY    44  37  76 NW6       30.09R
MADISON        FAIR      48  36  61 N5        30.08S
MITCHELL       PTCLDY    46  39  76 W6        30.09S
SIOUX FALLS    PTCLDY    45  41  86 CALM      30.07R
WINNER         FAIR      49  36  61 SW6       30.12S
YANKTON        CLEAR     45  37  76 NW5       30.08S
$$

MNZ071-072-080-081-089-090-097-098-251100-
SOUTHWEST MINNESOTA

CITY           SKY/WX    TMP DP  RH WIND       PRES   REMARKS
FAIRMONT       MOCLDY    55   0  10 NW9       30.02R
JACKSON        MOCLDY    54  36  50 NW8       30.04R
LUVERNE        PTCLDY    50  37  62 NW6       30.07S
MARSHALL       CLOUDY    54  34  47 NW10      30.04S
MONTEVIDEO     MOCLDY    54  37  54 N6        30.04R
PIPESTONE      MOCLDY    54  37  54 N5        30.06R
REDWOOD FALLS  MOCLDY    56  36  47 NW12      30.03R
TRACY          CLOUDY    56  37  47 NW10G16   30.05R
WINDOM         CLOUDY    55  36  47 NW15      30.04R
WORTHINGTON    MOCLDY    52  37  58 NW5       30.07R
$$

IAZ001>003-012>014-020>022-031-032-NEZ013-014-SDZ071-251100-
NORTHWEST IOWA

CITY           SKY/WX    TMP DP  RH WIND       PRES   REMARKS
CHEROKEE       CLEAR     43  43  99 CALM      30.05R
DENISON        CLEAR     45  45 100 CALM      30.03R
ESTHERVILLE    MOCLDY    51  39  63 NW7       30.03S
LE MARS        CLEAR     43  41  93 CALM      30.07R
ORANGE CITY    CLEAR     55  39  54 NE3       30.06R
SHELDON        CLEAR     45  41  87 N5        30.05R
SIOUX CITY     CLEAR     45  42  89 NW6       30.06R
SPENCER        CLEAR     46  38  73 NW5       30.05R
STORM LAKE     CLEAR     54  39  58 NE9       30.05S
$$

ABBREVIATIONS USED IN REMARKS
   TC - TEMPERATURE IN CELSIUS
  WCI - WIND CHILL INDEX
   HX - HEAT INDEX
  VSB - VISIBILITY




USA.gov is the U.S. government's official web portal to all federal, state and local government web resources and services.